Regional Weather Roundup
Issued by NWS

Home | Current Version | Previous Version | Text Only | Print | Product List | Glossary Off
Versions: 1 2 3 4 5 6 7 8 9 10 11 12 13 14 15 16 17 18 19 20 21 22 23 24 25 26 27 28 29 30 31 32 33 34 35 36 37 38 39 40 41 42 43 44 45 46 47 48 49 50

000
ASUS43 KDMX 210001
RWRIA

WEATHER ROUNDUP FOR IOWA
NATIONAL WEATHER SERVICE DES MOINES IA
600 PM CST TUE FEB 20 2018

NOTE: "FAIR" INDICATES FEW OR NO CLOUDS BELOW 12,000 FEET WITH NO
SIGNIFICANT WEATHER AND/OR OBSTRUCTIONS TO VISIBILITY.

* - THESE STATIONS ARE NOT NWS STATIONS...THUS NOT UNDER NWS
QUALITY CONTROL.  THEY ALSO DO NOT REPORT WEATHER SUCH
AS PRECIPITATION OR FOG.

IAZ001>003-012>014-020>022-031>034-043>046-210100-
   NORTHWEST IOWA

CITY           SKY/WX    TMP DP  RH WIND       PRES   REMARKS
CARROLL *      CLOUDY    16  12  86 NW20      30.24R WCI  -1
CHEROKEE *     FAIR      14   8  78 NW12G17   30.26R WCI   0
DENISON *      MOCLDY    14  10  85 N15G23    30.28R WCI  -1
LE MARS *      MOCLDY    12   7  79 NW13G20   30.29R WCI  -3
ORANGE CITY *  FAIR      10   7  85 NW16G25   30.26R WCI  -7
SHELDON *      CLOUDY    10   5  79 NW23      30.23R WCI -10
SIOUX CITY     FAIR      13   5  70 NW21      30.30R WCI  -5
6HR MIN TEMP:  12; 6HR MAX TEMP:  15; 6HR PCP: TRACE;

SPENCER        MIX PCPN  13   6  74 NW14      30.24R WCI  -2
6HR MIN TEMP:  13; 6HR MAX TEMP:  18; 6HR PCP: TRACE;

STORM LAKE *   FAIR      12   7  79 NW18G26   30.22R WCI  -5
$$

IAZ055>058-069>071-079>083-090>094-210100-
   SOUTHWEST IOWA

CITY           SKY/WX    TMP DP  RH WIND       PRES   REMARKS
ATLANTIC *     MOCLDY    18  12  79 NW15G21   30.26R WCI   3
AUDUBON *      FAIR      16  10  79 NW10      30.24R WCI   3
CLARINDA *     CLOUDY    19  16  86 N12G18    30.29R WCI   7
COUNCIL BLFS * FLURRIES  16  14  93 NW15G22   30.27R WCI   1
CRESTON *      CLOUDY    19  14  79 NW15G22   30.24R WCI   5
HARLAN  *      MOCLDY    16  12  86 NW16      30.29R WCI   0
LAMONI         CLOUDY    21  16  81 NW15      30.20R WCI   8
6HR MIN TEMP:  21; 6HR MAX TEMP:  25;

RED OAK *      MOCLDY    18  12  79 N14G21    30.27R WCI   4
SHENANDOAH *   FAIR      19  12  73 N15G22    30.29R WCI   5
$$

IAZ047>049-059>061-072>074-084-210100-
   CENTRAL IOWA

CITY           SKY/WX    TMP DP  RH WIND       PRES   REMARKS
AMES           CLOUDY    20  13  74 NW15      30.22R WCI   6
6HR MIN TEMP:  20; 6HR MAX TEMP:  23;

ANKENY *       CLOUDY    19  14  79 NW13G21   30.24R WCI   7
BOONE *        CLOUDY    18  12  79 MISG      30.20R
CHARITON *     CLOUDY    21  18  86 NW14G20   30.21R WCI   8
DES MOINES     FLURRIES  20  14  77 NW17      30.23R WCI   5
6HR MIN TEMP:  20; 6HR MAX TEMP:  25; 6HR PCP: TRACE;

GRINNELL*      CLOUDY    22  19  87 NW15      30.19R WCI   9
KNOXVILLE *    CLOUDY    21  18  86 NW16      30.20R WCI   7
MARSHALLTOWN   CLOUDY    20  16  84 NW20      30.19R WCI   4
6HR MIN TEMP:  20; 6HR MAX TEMP:  25;

NEWTON *       CLOUDY    21  18  86 NW15      30.21R WCI   8
PELLA *        CLOUDY    22  18  83 NW10G17   30.22R WCI  12
PERRY *        MOCLDY    19  14  82 NW12      30.24R WCI   6
$$

IAZ004>006-015-016-023>025-035-036-210100-
   NORTH CENTRAL IOWA

CITY           SKY/WX    TMP DP  RH WIND       PRES   REMARKS
CLARION *      MOCLDY    16  16 100 NW20G28   30.20R WCI  -1
ESTHERVILLE    FAIR      12   5  73 NW15      30.21R WCI  -4
6HR MIN TEMP:  12; 6HR MAX TEMP:  16; 6HR PCP: TRACE;

FORT DODGE *   FLURRIES  15   9  76 NW9G20    30.23R WCI   3
MASON CITY     FAIR      14   8  77 NW21      30.19R WCI  -4
6HR MIN TEMP:  14; 6HR MAX TEMP:  21; 6HR PCP: TRACE;

FOREST CITY *  FAIR      16  10  79 NW14      30.18R WCI   1
WEBSTER CITY * FAIR      16  10  79 NW17G25   30.20R WCI   0
IOWA FALLS *   FLURRIES  19  15  82 NW16      30.20R WCI   5
$$

IAZ007>011-017>019-026>030-037>042-050>054-066-210100-
   NORTHEAST IOWA

CITY           SKY/WX    TMP DP  RH WIND       PRES   REMARKS
CEDAR RAPIDS   CLOUDY    25  20  81 NW21G28   30.15R WCI  11
6HR MIN TEMP:  25; 6HR MAX TEMP:  32; 6HR PCP: TRACE;

CHARLES CITY * FLURRIES  18  18 100 NW20      30.17R WCI   1
CLINTON *        N/A     30  26  85 NW20      30.12  WCI  17
DECORAH *      CLOUDY    21  18  86 NW9G17    30.10R WCI  11
DUBUQUE        CLOUDY    27  21  78 NW14      30.09R WCI  16
6HR MIN TEMP:  27; 6HR MAX TEMP:  32; 6HR PCP:  0.02;

MONTICELLO *   CLOUDY    27  21  80 NW17      30.13R WCI  14
OELWEIN *      CLOUDY    21  21 100 W22       30.15R WCI   5
WATERLOO       CLOUDY    20  15  81 NW17      30.18R WCI   5
6HR MIN TEMP:  20; 6HR MAX TEMP:  26;

$$

IAZ064-065-067-068-078-210100-
   EAST CENTRAL IOWA

CITY           SKY/WX    TMP DP  RH WIND       PRES   REMARKS
DAVENPORT      CLOUDY    31  24  75 NW15G25   30.15R WCI  20
6HR MIN TEMP:  31; 6HR MAX TEMP:  36; 6HR PCP:  0.22;

IOWA CITY      MOCLDY    28  19  69 NW17      30.18R WCI  16
6HR MIN TEMP:  28; 6HR MAX TEMP:  35; 6HR PCP: TRACE;

MT. PLEASANT * CLOUDY    28  23  80 NW13G18   30.17R WCI  18
MUSCATINE *    CLOUDY    28  23  80 NW15G22   30.17R WCI  17
QUAD CITIES    CLOUDY    31  26  82 NW14      30.12R WCI  21
6HR MIN TEMP:  31; 6HR MAX TEMP:  36; 6HR PCP:  0.28;

$$

IAZ062-063-075>077-085>089-095>099-210100-
   SOUTHEAST IOWA

CITY           SKY/WX    TMP DP  RH WIND       PRES   REMARKS
BURLINGTON     CLOUDY    30  25  81 NW14      30.14R WCI  19
6HR MIN TEMP:  30; 6HR MAX TEMP:  35; 6HR PCP:  0.21;

FAIRFIELD *    CLOUDY    27  21  80 NW20      30.17R WCI  13
FORT MADISON * CLOUDY    28  27  93 NW14      30.15S WCI  17
KEOKUK *       CLOUDY    30  27  86 NW14G22   30.15R WCI  20
OSKALOOSA *    CLOUDY    24  20  85 NW9       30.20R WCI  14
OTTUMWA        CLOUDY    24  19  81 NW16      30.19R WCI  11
6HR MIN TEMP:  24; 6HR MAX TEMP:  30;

WASHINGTON *   CLOUDY    27  25  93 NW17G23   30.19R WCI  14
$$

ABBREVIATIONS USED IN REMARKS
   TC - TEMPERATURES IN CELSIUS
  WCI - WIND CHILL INDEX
   HX - HEAT INDEX
  VSB - VISIBILITY
$$




USA.gov is the U.S. government's official web portal to all federal, state and local government web resources and services.